Weather History for Rice Lake, WI

Change the Weather History Date:

Saturday, December 21, 2013

  Actual Average Record
Temperature  
Mean Temperature 18 °F -  
Max Temperature 23 °F 21 °F 42 °F (2003)
Min Temperature 12 °F 7 °F -14 °F (1999)
Degree Days  
Heating Degree Days 48    
Moisture  
Dew Point 15 °F    
Average Humidity 84    
Maximum Humidity 91    
Minimum Humidity 73    
Precipitation  
Precipitation 0.00 in - - ()
Sea Level Pressure  
Sea Level Pressure 29.91 in    
Wind  
Wind Speed 2 mph (North)    
Max Wind Speed 12 mph    
Max Gust Speed -    
Visibility 10 miles    
Events Snow    
Averages and records for this station are not official NWS values.
T = Trace of Precipitation, MM = Missing Value Source: NWS Daily Summary

Daily Weather History Graph

Daily Weather History Graph

Search for Another Location

Airport:

Trip Planner

Search our weather history database for the weather conditions in past years. The results will help you decide how hot, cold, wet, or windy it might be!

Date:

Astronomy

Dec. 21, 2013 Rise Set
Actual Time 7:43 AM CST 4:26 PM CST
Civil Twilight 7:09 AM CST 5:01 PM CST
Nautical Twilight 6:32 AM CST 5:38 PM CST
Astronomical Twilight 5:56 AM CST 6:14 PM CST
Moon 8:54 PM CST (12/21) 10:00 AM CST (12/21)
Length of Visible Light 9h 51m
Length of Day
8h 42m
Waning Gibbous, 84% of the Moon is Illuminated
Dec 21
Waning Gibbous
Dec 25
Last Quarter
Jan 1
New
Jan 7
First Quarter
Jan 15
Full

Hourly Weather History & Observations

Time (CST) Temp. Windchill Dew Point Humidity Pressure Visibility Wind Dir Wind Speed Gust Speed Precip Events Conditions
12:15 AM 14.0 °F - 11.8 °F 91% 29.84 in 10.0 mi Calm Calm - N/A   Overcast
12:35 AM 12.9 °F - 10.6 °F 90% 29.84 in 10.0 mi Calm Calm - N/A   Overcast
12:55 AM 13.1 °F - 10.9 °F 91% 29.83 in 10.0 mi Calm Calm - N/A   Overcast
1:15 AM 13.6 °F - 11.1 °F 90% 29.85 in 10.0 mi Calm Calm - N/A   Overcast
1:35 AM 14.2 °F - 11.8 °F 90% 29.85 in 10.0 mi Calm Calm - N/A   Overcast
1:55 AM 14.7 °F 9.0 °F 12.4 °F 90% 29.85 in 7.0 mi NNW 3.5 mph - N/A Snow Light Snow
2:15 AM 15.8 °F 10.2 °F 13.6 °F 91% 29.85 in 7.0 mi NNW 3.5 mph - N/A Snow Light Snow
2:35 AM 16.5 °F - 14.0 °F 90% 29.86 in 10.0 mi Calm Calm - N/A Snow Light Snow
2:55 AM 16.3 °F - 14.0 °F 90% 29.87 in 10.0 mi Calm Calm - N/A Snow Light Snow
3:15 AM 16.3 °F - 14.0 °F 90% 29.86 in 10.0 mi Calm Calm - N/A   Overcast
3:35 AM 16.3 °F - 13.8 °F 90% 29.86 in 10.0 mi Calm Calm - N/A   Overcast
3:55 AM 16.5 °F - 14.0 °F 90% 29.86 in 10.0 mi Calm Calm - N/A   Overcast
4:15 AM 16.5 °F - 14.0 °F 90% 29.86 in 10.0 mi Calm Calm - N/A   Overcast
4:35 AM 16.3 °F - 14.0 °F 90% 29.86 in 10.0 mi Calm Calm - N/A   Overcast
4:55 AM 16.5 °F - 14.0 °F 90% 29.86 in 10.0 mi Calm Calm - N/A   Overcast
5:15 AM 16.5 °F - 14.0 °F 90% 29.87 in 7.0 mi Calm Calm - N/A Snow Light Snow
5:35 AM 16.7 °F - 14.4 °F 91% 29.87 in 7.0 mi Calm Calm - N/A Snow Light Snow
5:55 AM 16.7 °F - 14.4 °F 91% 29.85 in 7.0 mi Calm Calm - N/A Snow Light Snow
6:15 AM 17.1 °F 11.7 °F 14.5 °F 90% 29.86 in 7.0 mi North 3.5 mph - N/A Snow Light Snow
6:35 AM 17.2 °F 11.9 °F 14.5 °F 89% 29.85 in 5.0 mi North 3.5 mph - N/A Snow Light Snow
6:55 AM 17.4 °F 10.4 °F 14.7 °F 89% 29.86 in 10.0 mi North 4.6 mph - N/A   Overcast
7:15 AM 17.6 °F - 14.7 °F 88% 29.90 in 10.0 mi Calm Calm - N/A   Overcast
7:35 AM 17.8 °F - 14.5 °F 87% 29.90 in 10.0 mi Calm Calm - N/A Snow Light Snow
7:55 AM 17.6 °F - 14.7 °F 88% 29.90 in 7.0 mi Calm Calm - N/A Snow Light Snow
8:15 AM 17.4 °F 12.1 °F 14.5 °F 88% 29.90 in 10.0 mi North 3.5 mph - N/A Snow Light Snow
8:35 AM 17.6 °F 10.7 °F 14.5 °F 88% 29.91 in 10.0 mi North 4.6 mph - N/A Snow Light Snow
8:55 AM 18.0 °F 11.1 °F 14.7 °F 87% 29.91 in 10.0 mi North 4.6 mph - N/A   Overcast
9:15 AM 18.5 °F 11.7 °F 14.9 °F 86% 29.90 in 10.0 mi North 4.6 mph - N/A   Overcast
9:35 AM 19.0 °F - 14.7 °F 83% 29.94 in 7.0 mi Calm Calm - N/A Snow Light Snow
9:55 AM 19.0 °F - 14.7 °F 83% 29.94 in 10.0 mi Calm Calm - N/A Snow Light Snow
10:15 AM 19.2 °F - 14.7 °F 83% 29.95 in 7.0 mi Calm Calm - N/A Snow Light Snow
10:35 AM 19.4 °F - 14.9 °F 83% 29.94 in 7.0 mi Calm Calm - N/A Snow Light Snow
10:55 AM 19.9 °F - 15.4 °F 83% 29.92 in 10.0 mi Calm Calm - N/A   Overcast
11:15 AM 20.8 °F - 15.4 °F 80% 29.93 in 7.0 mi Calm Calm - N/A Snow Light Snow
11:35 AM 20.8 °F - 15.6 °F 80% 29.92 in 10.0 mi Calm Calm - N/A   Overcast
11:55 AM 20.7 °F - 15.3 °F 80% 29.91 in 10.0 mi Calm Calm - N/A   Overcast
12:15 PM 20.8 °F 14.4 °F 15.6 °F 80% 29.90 in 10.0 mi NNW 4.6 mph - N/A   Overcast
12:35 PM 21.2 °F 14.9 °F 15.8 °F 80% 29.91 in 10.0 mi North 4.6 mph - N/A   Overcast
12:55 PM 21.7 °F 15.5 °F 15.8 °F 78% 29.93 in 10.0 mi North 4.6 mph - N/A   Overcast
1:15 PM 21.7 °F - 15.6 °F 77% 29.94 in 10.0 mi Calm Calm - N/A   Overcast
1:35 PM 21.9 °F - 16.3 °F 79% 29.95 in 10.0 mi Calm Calm - N/A   Overcast
1:55 PM 22.1 °F 14.7 °F 16.0 °F 77% 29.93 in 10.0 mi NNE 5.8 mph - N/A   Overcast
2:15 PM 22.3 °F 14.9 °F 16.5 °F 79% 29.93 in 10.0 mi NNE 5.8 mph - N/A   Overcast
2:35 PM 22.5 °F - 16.5 °F 78% 29.94 in 10.0 mi Calm Calm - N/A   Overcast
2:55 PM 22.5 °F 16.3 °F 16.7 °F 79% 29.94 in 10.0 mi NNE 4.6 mph - N/A   Overcast
3:15 PM 22.6 °F 14.3 °F 16.9 °F 79% 29.93 in 10.0 mi NNE 6.9 mph - N/A   Overcast
3:35 PM 22.6 °F 12.6 °F 17.1 °F 79% 29.93 in 10.0 mi North 9.2 mph - N/A   Overcast
3:55 PM 22.6 °F 15.3 °F 16.7 °F 78% 29.94 in 10.0 mi North 5.8 mph - N/A   Overcast
4:15 PM 23.0 °F 15.8 °F 15.6 °F 73% 29.95 in 10.0 mi North 5.8 mph - N/A   Overcast
4:35 PM 22.1 °F 12.8 °F 15.4 °F 76% 29.94 in 10.0 mi North 8.1 mph - N/A   Overcast
4:55 PM 21.9 °F 14.5 °F 14.9 °F 74% 29.95 in 10.0 mi North 5.8 mph - N/A   Overcast
5:15 PM 21.6 °F 16.8 °F 14.7 °F 75% 29.97 in 10.0 mi North 3.5 mph - N/A   Overcast
5:35 PM 20.1 °F 13.6 °F 14.0 °F 77% 29.97 in 10.0 mi North 4.6 mph - N/A   Overcast
5:55 PM 18.5 °F 10.4 °F 13.1 °F 79% 29.96 in 10.0 mi North 5.8 mph - N/A   Overcast
6:15 PM 19.4 °F 9.5 °F 14.2 °F 80% 29.97 in 10.0 mi North 8.1 mph - N/A   Overcast
6:35 PM 20.3 °F 8.3 °F 14.5 °F 78% 29.96 in 10.0 mi North 11.5 mph - N/A   Overcast
6:55 PM 19.9 °F 8.6 °F 14.7 °F 80% 29.96 in 10.0 mi North 10.4 mph - N/A   Overcast
7:15 PM 19.9 °F 8.6 °F 14.2 °F 78% 29.97 in 10.0 mi North 10.4 mph - N/A   Overcast
7:35 PM 19.4 °F 10.4 °F 14.4 °F 81% 29.98 in 10.0 mi NNE 6.9 mph - N/A   Overcast
7:55 PM 19.4 °F 10.4 °F 14.0 °F 80% 29.98 in 10.0 mi North 6.9 mph - N/A   Overcast
8:15 PM 19.4 °F 7.9 °F 14.0 °F 80% 29.98 in 10.0 mi NNE 10.4 mph - N/A   Overcast
8:35 PM 19.4 °F 9.5 °F 14.2 °F 80% 29.98 in 10.0 mi NNE 8.1 mph - N/A   Overcast
8:55 PM 19.2 °F 8.4 °F 14.0 °F 80% 29.96 in 10.0 mi NE 9.2 mph - N/A   Overcast
9:15 PM 18.5 °F 9.3 °F 13.6 °F 81% 29.94 in 10.0 mi NE 6.9 mph - N/A   Overcast
9:35 PM 18.0 °F 7.7 °F 13.8 °F 84% 29.92 in 10.0 mi North 8.1 mph - N/A   Overcast
9:55 PM 18.5 °F 13.3 °F 14.0 °F 83% 29.92 in 10.0 mi NNW 3.5 mph - N/A   Overcast
10:15 PM 18.5 °F 11.7 °F 14.4 °F 84% 29.92 in 10.0 mi North 4.6 mph - N/A   Overcast
10:35 PM 19.0 °F 13.9 °F 14.4 °F 82% 29.92 in 10.0 mi NNW 3.5 mph - N/A   Overcast
10:55 PM 19.2 °F 11.3 °F 14.7 °F 83% 29.92 in 10.0 mi North 5.8 mph - N/A   Overcast
11:15 PM 19.2 °F 12.5 °F 14.7 °F 83% 29.92 in 10.0 mi NNW 4.6 mph - N/A   Overcast
11:35 PM 19.2 °F 14.1 °F 14.9 °F 83% 29.91 in 10.0 mi NNW 3.5 mph - N/A   Overcast
11:55 PM 19.2 °F 12.5 °F 14.9 °F 83% 29.91 in 10.0 mi North 4.6 mph - N/A   Overcast